Location: Altoona
(40.5167°N, 78.4000°W)
Time: 21:39:00
(UTC-04:00)

Daily predictions for brighter satellites

Satellite Brightness Start Highest point End
(mag) Time Altitude Azimuth Time Altitude Azimuth Time Altitude Azimuth
Cosmos 2263 Rocket 2.8 21:14:08 10° SSW 21:19:46 65° WNW 21:25:25 10° NNE
Cosmos 158 Rocket 4.1 21:14:52 10° SSW 21:20:12 87° ESE 21:25:26 10° NNE
Cosmos 2266 Rocket 4.1 21:16:19 10° N 21:22:43 68° E 21:28:59 10° SSE
Cosmos 1452 Rocket 3.6 21:17:42 10° NNW 21:23:01 76° ENE 21:28:18 10° SSE
Spot 2 Rocket 3.5 21:18:51 10° SSE 21:23:52 79° ENE 21:28:58 10° N
Cosmos 1420 Rocket 4.1 21:19:16 10° NNW 21:24:27 68° ENE 21:29:37 10° SSE
Cosmos 1939 Rocket 4.1 21:23:05 10° S 21:26:58 42° W 21:30:49 10° NNW
GENESIS II 4.4 21:27:33 10° SSW 21:31:18 50° ESE 21:35:07 10° NE
Meteor 1-16 Rocket 4.2 21:27:53 10° N 21:33:26 73° E 21:39:08 10° SSE
In-Cosmos 22 4.4 21:31:56 10° SSE 21:37:16 52° E 21:42:44 10° NNE
Terra 4.1 21:38:38 10° ENE 21:39:24 10° ENE 21:40:11 10° NE
Cosmos 1707 4.1 21:39:30 10° SSW 21:43:11 42° W 21:46:52 10° N
H-2A R/B 2.5 21:40:36 10° SE 21:45:41 52° ENE 21:50:55 10° N
MetOp-B 4.4 21:44:20 11° SSE 21:49:27 56° ENE 21:54:42 10° N
ATLAS 3B R/B 3.8 21:45:24 10° NNW 21:51:17 32° NE 21:57:03 10° ESE
Cosmos-2242 3.6 21:47:28 10° N 21:51:41 43° ENE 21:55:07 15° SSE
Cosmos 1315 Rocket 2.8 21:48:25 10° S 21:52:27 84° E 21:56:34 10° N
Cosmos 1674 3.6 21:50:51 14° SSE 21:53:32 30° E 21:56:55 10° NNE
Cosmos 1269 Rocket 4.0 21:49:19 10° S 21:54:33 66° ESE 21:59:50 10° NNE
Cosmos 2084 3.7 21:52:41 10° NNW 21:56:25 47° NE 21:59:10 17° ESE
Cosmos 494 Rocket 4.4 21:57:39 10° S 22:02:34 44° ESE 22:07:34 10° NNE
DMSP B5D2-2 4.5 22:01:15 10° NNE 22:06:15 43° E 22:10:30 14° SSE
ERS-2 4.3 22:07:24 10° SSW 22:10:21 23° W 22:13:18 10° NW
Cosmos 2278 Rocket 3.4 22:08:20 17° SE 22:10:36 22° E 22:14:51 10° NE
Helios 1A 3.9 22:09:19 19° ESE 22:11:41 34° ENE 22:15:30 10° N
Cosmos 1953 Rocket 3.7 22:07:39 10° SSW 22:11:59 74° W 22:16:23 10° N
SPOT 5 3.6 22:08:36 18° SE 22:12:00 42° ENE 22:16:56 10° N
Cosmos 1726 3.1 22:10:26 10° NNE 22:13:52 33° ENE 22:15:28 23° ESE
Cosmos 1238 Rocket 2.7 22:13:57 10° SSW 22:16:50 55° W 22:19:48 10° N
ATLAS 2AS CENTAUR R/B 3.0 22:09:18 10° SSW 22:17:05 84° ESE 22:25:15 10° NE
Cosmos 1758 Rocket 4.4 22:13:10 10° SSW 22:17:30 51° W 22:21:49 10° N
Timation 1 Rocket 4.3 22:12:22 10° SSW 22:18:17 72° ESE 22:24:14 10° NNE
Resurs 01 Rocket 4.0 22:15:19 10° SW 22:18:28 19° W 22:21:37 10° NW
OAO 3 Rocket 3.6 22:14:05 10° WSW 22:18:48 45° S 22:21:44 21° ESE
Lacrosse 5 2.5 22:14:07 10° WSW 22:19:07 58° NW 22:24:07 10° NE
ARGOS 3.5 22:13:56 11° S 22:19:10 65° WSW 22:24:35 10° NNW
SL-8 R/B 3.6 22:15:49 10° SW 22:20:39 82° SSE 22:25:30 10° ENE
Helios 1B rocket 3.4 22:18:30 10° NE 22:22:04 28° E 22:23:15 24° SE
Iridium 18 4.3 22:20:45 25° S 22:22:30 71° E 22:26:11 10° N
COSMOS 2406 3.6 22:17:11 10° NNW 22:22:49 52° ENE 22:26:24 22° SE
CSL-04 DEB 4.2 22:25:14 24° SSE 22:27:29 85° ENE 22:31:26 10° NNW
SL-14 R/B 4.4 22:26:56 23° ESE 22:27:40 25° E 22:30:55 10° NE
Cosmos 2251 Rocket 4.1 22:25:25 22° SSE 22:28:16 38° ESE 22:33:09 10° NE
Cosmos 1346 Rocket 3.1 22:26:09 10° NNW 22:30:08 65° W 22:32:47 20° S
ERS-1 Rocket 3.0 22:26:46 19° S 22:30:24 84° WSW 22:35:28 10° NNW
CZ-2C R/B 4.3 22:28:42 19° ESE 22:31:55 33° ENE 22:37:00 10° N
Cosmos 1844 3.7 22:26:28 10° SSW 22:32:09 83° ESE 22:37:56 10° NNE
Cosmos 1844 Rocket 2.9 22:26:41 10° SSW 22:32:21 76° WNW 22:38:01 10° NNE
Cosmos 1417 Rocket 4.5 22:27:02 12° S 22:33:03 81° E 22:39:23 10° N
KORONAS-FOTON 3.7 22:33:26 23° S 22:35:44 81° E 22:39:40 10° N
OE (NEXTSAT) 4.4 22:34:56 10° WNW 22:38:26 62° SSW 22:39:24 41° SSE
Cosmos 2221 3.7 22:37:19 10° NNE 22:41:03 28° ENE 22:42:13 24° ESE
ATLAS 3B CENTAUR R/B 4.2 22:29:49 10° SW 22:43:31 28° S 22:46:48 24° SE
Cosmos 921 Rocket 3.3 22:42:30 10° NNW 22:46:57 64° WSW 22:49:14 28° S
Cosmos 1745 Rocket 4.0 22:43:07 10° N 22:49:27 73° E 22:53:00 27° SSE
Meteor 1-29 3.4 22:46:54 10° NNE 22:50:07 40° E 22:50:08 40° E
ATLAS 5 CENTAUR R/B 2.9 22:53:54 24° E 22:53:54 24° E 22:57:02 10° ENE
NOSS 3-4 (A) 3.6 22:50:38 21° S 22:54:29 48° ESE 23:00:32 10° NE
NOSS 3-4 (C) 3.6 22:50:51 22° S 22:54:34 48° ESE 23:00:37 10° NE
Landsat 7 3.7 22:54:52 34° SSE 22:56:59 89° ENE 23:01:47 10° NNW
Cosmos 2082 Rocket 3.8 22:53:57 10° N 22:58:31 24° NE 23:01:32 16° E
CENTAUR R/B 4.2 22:53:14 10° NNW 23:00:17 34° NE 23:07:06 13° ESE
Cosmos 1908 4.3 22:57:21 10° NNW 23:00:58 39° W 23:02:49 23° SW
Cosmos 1833 Rocket 4.0 22:58:56 10° N 23:03:46 29° NE 23:06:24 20° E
Meteor 2-13 Rocket 4.4 23:00:50 10° N 23:06:57 90° E 23:10:01 32° S
RESURS DK-1 4.4 23:10:23 15° ENE 23:10:23 15° ENE 23:11:42 10° ENE
Cosmos 1461 3.1 23:08:01 38° S 23:09:42 66° ESE 23:14:25 10° NE
CARTOSAT-1 3.5 23:10:01 46° S 23:11:17 86° WSW 23:15:38 10° NNW
Cosmos 807 4.4 23:12:49 59° W 23:12:55 60° W 23:16:00 10° N
Cosmos 1626 2.6 23:14:08 44° E 23:14:08 44° E 23:17:32 10° NNE
Spot 1 4.0 23:13:56 49° SSE 23:15:05 90° ESE 23:19:40 10° NNW
S3M 4.4 23:10:09 15° SSW 23:15:21 62° W 23:21:43 10° N
Cosmos 220 Rocket 4.4 23:13:14 23° SW 23:15:45 59° WNW 23:19:54 10° NNE
CZ-2C R/B 2.9 23:10:29 10° NNE 23:15:46 50° E 23:17:05 41° SE
Terra 1.7 23:14:51 44° SSE 23:16:23 89° WSW 23:21:10 10° NNW
Cosmos 1340 3.5 23:13:30 10° NNW 23:17:07 43° W 23:18:05 35° SW
IGS 5A 3.6 23:19:09 47° SSW 23:20:10 65° W 23:24:19 10° NNW
APEX 2.8 23:17:20 10° NNW 23:20:29 79° WSW 23:20:32 78° SW
Cosmos 1709 Rocket 4.0 23:16:46 10° N 23:22:59 66° E 23:25:14 40° SSE
NOSS 2-2 (D) 4.0 23:24:53 40° E 23:24:53 40° E 23:28:07 10° NE
SPOT 1/Viking Rocket 4.4 23:22:20 25° SSW 23:24:48 41° W 23:29:39 10° NNW
H-2A R/B 4.2 23:21:39 10° SW 23:25:24 20° W 23:29:14 10° NW
YAOGAN 11 4.1 23:26:55 55° SSE 23:27:54 86° ENE 23:32:30 10° NNW
Cosmos 1455 3.7 23:27:32 10° NNE 23:30:25 25° ENE 23:30:25 25° ENE
Cosmos 1300 3.0 23:27:37 10° NNW 23:31:23 57° W 23:31:48 53° WSW
Cosmos 1076 Rocket 3.3 23:32:55 69° SSE 23:33:19 78° E 23:37:35 10° N
Cosmos 1766 Rocket 4.3 23:34:46 39° E 23:34:46 39° E 23:38:51 10° NNE
Cosmos 1328 3.6 23:34:47 77° E 23:34:48 77° E 23:38:46 10° N
SL-27 R/B 3.9 23:35:04 10° N 23:38:04 28° ENE 23:38:04 28° ENE
Meteor 1-11 4.5 23:37:29 45° SE 23:38:43 54° E 23:44:21 10° NNE
Spot 4 4.1 23:38:24 49° ESE 23:39:19 58° ENE 23:44:06 10° N
USA 238 DEB 4.4 23:34:40 10° NW 23:41:23 45° WSW 23:44:13 31° SSW
USA 238 4.4 23:34:46 10° NW 23:41:30 45° WSW 23:44:19 32° SSW
ATLAS 3B R/B 2.9 23:35:50 10° NW 23:42:16 56° WSW 23:44:26 39° S
SL-08 ROCKET BODY 4.4 23:39:02 10° N 23:45:17 81° E 23:47:11 47° SSE
NOSS 2-2 (C) 3.2 23:50:16 84° NNE 23:50:16 84° NNE 23:54:24 10° NE
Mayak 0.5 23:47:15 10° NE 23:49:39 22° ENE 23:49:39 22° ENE
H-2A R/B 4.2 23:50:04 13° ENE 23:50:39 13° ENE 23:52:40 10° NNE
Cosmos 2278 Rocket 2.9 23:50:05 17° SW 23:54:16 51° WNW 23:59:48 10° NNE
